| time (UTC) | temp F | wind direction | speed knots | gust knots | rain 1hr in | rain 24hr in | rain mn in | humidity % | barometer mb |
| 20260508004202 | 46 | 178 | 0.0 | 0.0 | 0.00 | 0.00 | 0.00 | 64 | 1011.0 |
| 20260508003703 | 46 | 178 | 0.0 | 0.9 | 0.00 | 0.00 | 0.00 | 65 | 1010.9 |
| 20260508003203 | 47 | 178 | 0.0 | 0.9 | 0.00 | 0.00 | 0.00 | 61 | 1010.9 |
| 20260508002702 | 47 | 178 | 0.0 | 0.9 | 0.00 | 0.00 | 0.00 | 60 | 1010.9 |
| 20260508001702 | 47 | 178 | 0.9 | 1.7 | 0.00 | 0.00 | 0.00 | 58 | 1010.9 |
| 20260508001202 | 47 | 166 | 0.0 | 0.9 | 0.00 | 0.00 | 0.00 | 59 | 1010.8 |
| 20260508000703 | 47 | 168 | 0.9 | 2.6 | 0.00 | 0.00 | 0.00 | 58 | 1010.8 |
| 20260508000204 | 47 | 168 | 0.0 | 1.7 | 0.00 | 0.00 | 0.00 | 58 | 1010.8 |
| 20260507235202 | 47 | 178 | 1.7 | 2.6 | 0.00 | 0.00 | 0.00 | 56 | 1010.7 |
| 20260507234702 | 47 | 156 | 0.9 | 5.2 | 0.00 | 0.00 | 0.00 | 55 | 1010.7 |
| 20260507234203 | 48 | 186 | 1.7 | 4.3 | 0.00 | 0.00 | 0.00 | 55 | 1010.7 |
| 20260507233703 | 48 | 185 | 1.7 | 5.2 | 0.00 | 0.00 | 0.00 | 55 | 1010.8 |
| 20260507233203 | 48 | 198 | 1.7 | 5.2 | 0.00 | 0.00 | 0.00 | 55 | 1010.8 |
| 20260507232703 | 48 | 175 | 1.7 | 6.1 | 0.00 | 0.00 | 0.00 | 54 | 1010.8 |
| 20260507232203 | 48 | 184 | 1.7 | 4.3 | 0.00 | 0.00 | 0.00 | 54 | 1010.9 |
| 20260507231702 | 48 | 149 | 0.9 | 2.6 | 0.00 | 0.00 | 0.00 | 55 | 1010.9 |
| 20260507231203 | 48 | 188 | 1.7 | 2.6 | 0.00 | 0.00 | 0.00 | 55 | 1011.0 |
| 20260507230703 | 48 | 167 | 1.7 | 4.3 | 0.00 | 0.00 | 0.00 | 53 | 1011.0 |
| 20260507230202 | 48 | 185 | 1.7 | 4.3 | 0.00 | 0.00 | 0.00 | 55 | 1011.0 |
| 20260507225703 | 48 | 155 | 2.6 | 5.2 | 0.00 | 0.00 | 0.00 | 55 | 1011.2 |
| 20260507225203 | 48 | 176 | 0.9 | 1.7 | 0.00 | 0.00 | 0.00 | 55 | 1011.2 |
| 20260507224702 | 48 | 204 | 0.9 | 2.6 | 0.00 | 0.00 | 0.00 | 55 | 1011.2 |
| 20260507224202 | 48 | 173 | 1.7 | 2.6 | 0.00 | 0.00 | 0.00 | 54 | 1011.2 |
| 20260507223703 | 48 | 226 | 0.9 | 4.3 | 0.00 | 0.00 | 0.00 | 54 | 1011.1 |
| 20260507222702 | 47 | 121 | 1.7 | 6.1 | 0.00 | 0.00 | 0.00 | 54 | 1011.2 |
| 20260507222203 | 48 | 199 | 1.7 | 7.8 | 0.00 | 0.00 | 0.00 | 54 | 1011.2 |
| 20260507221703 | 48 | 176 | 1.7 | 5.2 | 0.00 | 0.00 | 0.00 | 54 | 1011.3 |
| 20260507221203 | 48 | 174 | 1.7 | 6.1 | 0.00 | 0.00 | 0.00 | 54 | 1011.4 |
| 20260507220703 | 48 | 230 | 1.7 | 10.4 | 0.00 | 0.00 | 0.00 | 54 | 1011.4 |
| 20260507220203 | 48 | 220 | 4.3 | 7.8 | 0.00 | 0.00 | 0.00 | 51 | 1011.4 |
| 20260507215203 | 48 | 226 | 1.7 | 5.2 | 0.00 | 0.00 | 0.00 | 50 | 1011.4 |
| 20260507214703 | 48 | 160 | 3.5 | 6.1 | 0.00 | 0.00 | 0.00 | 49 | 1011.3 |
| 20260507214203 | 48 | 214 | 4.3 | 7.8 | 0.00 | 0.00 | 0.00 | 50 | 1011.3 |
| 20260507213703 | 48 | 171 | 1.7 | 5.2 | 0.00 | 0.00 | 0.00 | 51 | 1011.4 |
| 20260507213202 | 48 | 183 | 1.7 | 5.2 | 0.00 | 0.00 | 0.00 | 51 | 1011.4 |
| 20260507212703 | 48 | 185 | 1.7 | 7.0 | 0.00 | 0.00 | 0.00 | 48 | 1011.3 |
| 20260507212203 | 48 | 174 | 1.7 | 8.7 | 0.00 | 0.00 | 0.00 | 50 | 1011.4 |
| 20260507211703 | 48 | 194 | 2.6 | 6.1 | 0.00 | 0.00 | 0.00 | 50 | 1011.4 |
| 20260507210703 | 48 | 255 | 1.7 | 4.3 | 0.00 | 0.00 | 0.00 | 49 | 1011.5 |
| 20260507210203 | 48 | 226 | 1.7 | 7.0 | 0.00 | 0.00 | 0.00 | 48 | 1011.6 |
| 20260507205703 | 49 | 180 | 4.3 | 7.8 | 0.00 | 0.00 | 0.00 | 49 | 1011.6 |
| 20260507205203 | 48 | 253 | 2.6 | 6.1 | 0.00 | 0.00 | 0.00 | 50 | 1011.6 |
| 20260507204703 | 48 | 266 | 1.7 | 6.1 | 0.00 | 0.00 | 0.00 | 49 | 1011.7 |
| 20260507204203 | 48 | 175 | 2.6 | 7.0 | 0.00 | 0.00 | 0.00 | 50 | 1011.7 |
| 20260507203702 | 48 | 168 | 2.6 | 6.1 | 0.00 | 0.00 | 0.00 | 48 | 1011.8 |
| 20260507203203 | 49 | 178 | 2.6 | 10.4 | 0.00 | 0.00 | 0.00 | 47 | 1011.8 |
| 20260507202703 | 49 | 169 | 2.6 | 7.8 | 0.00 | 0.00 | 0.00 | 49 | 1011.7 |
| 20260507202203 | 49 | 180 | 2.6 | 7.8 | 0.00 | 0.00 | 0.00 | 47 | 1011.8 |
| 20260507201703 | 49 | 175 | 4.3 | 10.4 | 0.00 | 0.00 | 0.00 | 46 | 1011.9 |
| 20260507201202 | 49 | 236 | 2.6 | 7.8 | 0.00 | 0.00 | 0.00 | 46 | 1011.9 |
| 20260507200203 | 48 | 230 | 2.6 | 6.1 | 0.00 | 0.00 | 0.00 | 47 | 1011.9 |
| 20260507195703 | 48 | 205 | 4.3 | 7.8 | 0.00 | 0.00 | 0.00 | 44 | 1012.0 |
| 20260507195203 | 49 | 204 | 2.6 | 7.0 | 0.00 | 0.00 | 0.00 | 46 | 1012.0 |
| 20260507194703 | 49 | 182 | 4.3 | 7.8 | 0.00 | 0.00 | 0.00 | 46 | 1012.1 |
| 20260507194203 | 49 | 172 | 2.6 | 5.2 | 0.00 | 0.00 | 0.00 | 46 | 1012.1 |
| 20260507193704 | 49 | 299 | 2.6 | 4.3 | 0.00 | 0.00 | 0.00 | 45 | 1012.1 |
| 20260507193203 | 49 | 249 | 1.7 | 4.3 | 0.00 | 0.00 | 0.00 | 46 | 1012.1 |
| 20260507192703 | 49 | 181 | 2.6 | 6.1 | 0.00 | 0.00 | 0.00 | 46 | 1012.2 |
| 20260507192203 | 49 | 273 | 2.6 | 6.1 | 0.00 | 0.00 | 0.00 | 48 | 1012.3 |
| 20260507191703 | 49 | 196 | 3.5 | 5.2 | 0.00 | 0.00 | 0.00 | 48 | 1012.4 |
| 20260507191203 | 49 | 257 | 2.6 | 5.2 | 0.00 | 0.00 | 0.00 | 47 | 1012.3 |
| 20260507190704 | 48 | 310 | 1.7 | 5.2 | 0.00 | 0.00 | 0.00 | 46 | 1012.3 |
| 20260507190203 | 48 | 266 | 2.6 | 8.7 | 0.00 | 0.00 | 0.00 | 46 | 1012.4 |
| 20260507185703 | 48 | 245 | 2.6 | 6.1 | 0.00 | 0.00 | 0.00 | 45 | 1012.4 |
| 20260507185203 | 48 | 232 | 3.5 | 6.1 | 0.00 | 0.00 | 0.00 | 46 | 1012.3 |
| 20260507184203 | 48 | 190 | 1.7 | 5.2 | 0.00 | 0.00 | 0.00 | 47 | 1012.2 |
| 20260507183703 | 48 | 234 | 1.7 | 7.0 | 0.00 | 0.00 | 0.00 | 49 | 1012.4 |
| 20260507183203 | 48 | 189 | 4.3 | 7.8 | 0.00 | 0.00 | 0.00 | 48 | 1012.4 |
| 20260507182703 | 47 | 325 | 2.6 | 4.3 | 0.00 | 0.00 | 0.00 | 48 | 1012.4 |
| 20260507182204 | 47 | 226 | 3.5 | 6.1 | 0.00 | 0.00 | 0.00 | 49 | 1012.5 |
| 20260507181703 | 47 | 174 | 3.5 | 8.7 | 0.00 | 0.00 | 0.00 | 48 | 1012.5 |
| 20260507181203 | 47 | 225 | 4.3 | 10.4 | 0.00 | 0.00 | 0.00 | 47 | 1012.5 |
| 20260507180703 | 47 | 190 | 2.6 | 7.8 | 0.00 | 0.00 | 0.00 | 48 | 1012.6 |
| 20260507180204 | 48 | 208 | 2.6 | 7.0 | 0.00 | 0.00 | 0.00 | 48 | 1012.5 |
| 20260507175704 | 48 | 257 | 2.6 | 7.0 | 0.00 | 0.00 | 0.00 | 49 | 1012.6 |
| 20260507174704 | 48 | 191 | 2.6 | 6.1 | 0.00 | 0.00 | 0.00 | 50 | 1012.6 |
| 20260507174203 | 48 | 265 | 1.7 | 7.8 | 0.00 | 0.00 | 0.00 | 50 | 1012.6 |
| 20260507173704 | 48 | 296 | 1.7 | 4.3 | 0.00 | 0.00 | 0.00 | 48 | 1012.6 |
| 20260507173204 | 48 | 234 | 2.6 | 7.8 | 0.00 | 0.00 | 0.00 | 47 | 1012.7 |
| 20260507172703 | 48 | 245 | 3.5 | 7.0 | 0.00 | 0.00 | 0.00 | 48 | 1012.8 |
| 20260507172204 | 48 | 249 | 3.5 | 7.0 | 0.00 | 0.00 | 0.00 | 47 | 1012.9 |
| 20260507171703 | 49 | 252 | 4.3 | 7.0 | 0.00 | 0.00 | 0.00 | 47 | 1013.0 |
| 20260507171204 | 48 | 331 | 1.7 | 7.0 | 0.00 | 0.00 | 0.00 | 48 | 1013.0 |
| 20260507170704 | 48 | 287 | 1.7 | 2.6 | 0.00 | 0.00 | 0.00 | 48 | 1013.2 |
| 20260507170203 | 48 | 44 | 2.6 | 10.4 | 0.00 | 0.00 | 0.00 | 48 | 1013.2 |
| 20260507165704 | 48 | 245 | 1.7 | 7.0 | 0.00 | 0.00 | 0.00 | 51 | 1013.2 |
| 20260507165203 | 48 | 248 | 2.6 | 7.0 | 0.00 | 0.00 | 0.00 | 48 | 1013.3 |
| 20260507164703 | 47 | 291 | 2.6 | 7.0 | 0.00 | 0.00 | 0.00 | 50 | 1013.4 |
| 20260507164204 | 46 | 242 | 2.6 | 8.7 | 0.00 | 0.00 | 0.00 | 50 | 1013.5 |
| 20260507163703 | 46 | 271 | 2.6 | 7.0 | 0.00 | 0.00 | 0.00 | 49 | 1013.5 |
| 20260507163203 | 46 | 115 | 1.7 | 6.1 | 0.00 | 0.00 | 0.00 | 51 | 1013.6 |
| 20260507162704 | 46 | 242 | 4.3 | 7.8 | 0.00 | 0.00 | 0.00 | 51 | 1013.7 |
| 20260507162204 | 46 | 40 | 2.6 | 6.1 | 0.00 | 0.00 | 0.00 | 53 | 1013.7 |
| 20260507161203 | 45 | 245 | 2.6 | 7.0 | 0.00 | 0.00 | 0.00 | 58 | 1013.9 |
| 20260507160704 | 45 | 266 | 2.6 | 6.1 | 0.00 | 0.00 | 0.00 | 61 | 1013.9 |
| 20260507160204 | 44 | 212 | 4.3 | 6.1 | 0.00 | 0.00 | 0.00 | 60 | 1013.9 |
| 20260507155704 | 43 | 296 | 1.7 | 4.3 | 0.00 | 0.00 | 0.00 | 65 | 1014.0 |
| 20260507155204 | 43 | 257 | 1.7 | 2.6 | 0.00 | 0.00 | 0.00 | 66 | 1014.0 |
| 20260507154702 | 42 | 243 | 2.6 | 6.1 | 0.00 | 0.00 | 0.00 | 65 | 1014.1 |
| 20260507154202 | 42 | 254 | 2.6 | 4.3 | 0.00 | 0.00 | 0.00 | 65 | 1014.0 |
| 20260507153703 | 42 | 249 | 2.6 | 4.3 | 0.00 | 0.00 | 0.00 | 66 | 1014.0 |
| 20260507153203 | 42 | 252 | 0.9 | 2.6 | 0.00 | 0.00 | 0.00 | 66 | 1014.0 |
| 20260507152203 | 42 | 251 | 1.7 | 2.6 | 0.00 | 0.00 | 0.00 | 67 | 1014.0 |
| 20260507151702 | 42 | 245 | 0.9 | 2.6 | 0.00 | 0.00 | 0.00 | 68 | 1014.0 |
| 20260507150703 | 42 | 227 | 1.7 | 2.6 | 0.00 | 0.00 | 0.00 | 69 | 1014.0 |
| 20260507150203 | 42 | 213 | 0.0 | 0.0 | 0.00 | 0.00 | 0.00 | 70 | 1014.0 |
| 20260507145703 | 42 | 222 | 0.0 | 2.6 | 0.00 | 0.00 | 0.00 | 69 | 1014.0 |
| 20260507145202 | 42 | 241 | 1.7 | 2.6 | 0.00 | 0.00 | 0.00 | 68 | 1014.0 |
| 20260507144202 | 42 | 240 | 1.7 | 2.6 | 0.00 | 0.00 | 0.00 | 68 | 1014.1 |
| 20260507143702 | 42 | 244 | 0.9 | 1.7 | 0.00 | 0.00 | 0.00 | 68 | 1014.1 |
| 20260507142702 | 42 | 235 | 1.7 | 2.6 | 0.00 | 0.00 | 0.00 | 68 | 1014.1 |
| 20260507142203 | 42 | 228 | 0.9 | 2.6 | 0.00 | 0.00 | 0.00 | 69 | 1014.1 |
| 20260507141703 | 42 | 210 | 0.9 | 2.6 | 0.00 | 0.00 | 0.00 | 69 | 1014.1 |
| 20260507141202 | 42 | 230 | 1.7 | 2.6 | 0.00 | 0.00 | 0.00 | 69 | 1014.1 |
| 20260507140703 | 42 | 215 | 2.6 | 4.3 | 0.00 | 0.00 | 0.00 | 68 | 1014.1 |
| 20260507135703 | 42 | 253 | 1.7 | 2.6 | 0.00 | 0.00 | 0.00 | 69 | 1014.2 |
| 20260507135203 | 42 | 239 | 0.9 | 2.6 | 0.00 | 0.00 | 0.00 | 69 | 1014.1 |
| 20260507134702 | 42 | 218 | 1.7 | 2.6 | 0.00 | 0.00 | 0.00 | 68 | 1014.1 |
| 20260507134203 | 42 | 247 | 1.7 | 2.6 | 0.00 | 0.00 | 0.00 | 69 | 1014.2 |
| 20260507133703 | 42 | 280 | 0.9 | 2.6 | 0.00 | 0.00 | 0.00 | 69 | 1014.1 |
| 20260507133202 | 42 | 90 | 0.9 | 2.6 | 0.00 | 0.00 | 0.00 | 71 | 1014.1 |
| 20260507132704 | 42 | 245 | 0.9 | 2.6 | 0.00 | 0.00 | 0.00 | 70 | 1014.0 |
| 20260507132203 | 42 | 224 | 1.7 | 2.6 | 0.00 | 0.00 | 0.00 | 71 | 1013.9 |
| 20260507131703 | 42 | 236 | 0.9 | 1.7 | 0.00 | 0.00 | 0.00 | 71 | 1013.9 |
| 20260507131203 | 42 | 234 | 0.9 | 2.6 | 0.00 | 0.00 | 0.00 | 72 | 1013.9 |
| 20260507130702 | 42 | 241 | 1.7 | 2.6 | 0.00 | 0.00 | 0.00 | 72 | 1013.9 |
| 20260507130203 | 42 | 238 | 1.7 | 2.6 | 0.00 | 0.00 | 0.00 | 74 | 1013.9 |
| 20260507125703 | 42 | 168 | 1.7 | 2.6 | 0.00 | 0.00 | 0.00 | 76 | 1013.8 |
| 20260507125202 | 41 | 166 | 1.7 | 2.6 | 0.00 | 0.00 | 0.00 | 78 | 1013.8 |
| 20260507124703 | 41 | 227 | 0.9 | 2.6 | 0.00 | 0.00 | 0.00 | 80 | 1013.8 |
| 20260507124202 | 41 | 163 | 1.7 | 2.6 | 0.00 | 0.00 | 0.00 | 82 | 1013.8 |
| 20260507123203 | 40 | 222 | 1.7 | 2.6 | 0.00 | 0.00 | 0.00 | 87 | 1013.7 |
| 20260507122705 | 39 | 237 | 0.9 | 2.6 | 0.00 | 0.00 | 0.00 | 91 | 1013.7 |
| 20260507122203 | 38 | 235 | 1.7 | 2.6 | 0.00 | 0.00 | 0.00 | 95 | 1013.7 |
| 20260507121702 | 37 | 203 | 0.9 | 2.6 | 0.00 | 0.00 | 0.00 | 96 | 1013.7 |
| 20260507121203 | 36 | 198 | 0.9 | 2.6 | 0.00 | 0.00 | 0.00 | 95 | 1013.7 |
| 20260507120703 | 35 | 144 | 0.0 | 0.9 | 0.00 | 0.00 | 0.00 | 95 | 1013.6 |
| 20260507120203 | 34 | 144 | 0.0 | 0.0 | 0.00 | 0.00 | 0.00 | 95 | 1013.6 |
| 20260507115703 | 33 | 144 | 0.0 | 0.9 | 0.00 | 0.00 | 0.00 | 95 | 1013.6 |
| 20260507115203 | 32 | 144 | 0.0 | 1.7 | 0.00 | 0.00 | 0.00 | 94 | 1013.5 |
| 20260507114703 | 32 | 144 | 0.0 | 1.7 | 0.00 | 0.00 | 0.00 | 94 | 1013.3 |
| 20260507114203 | 31 | 144 | 0.9 | 1.7 | 0.00 | 0.00 | 0.00 | 94 | 1013.3 |
| 20260507113703 | 31 | 144 | 0.0 | 1.7 | 0.00 | 0.00 | 0.00 | 94 | 1013.2 |
| 20260507113204 | 31 | 144 | 0.0 | 0.0 | 0.00 | 0.00 | 0.00 | 94 | 1013.2 |
| 20260507112703 | 31 | 144 | 0.0 | 0.0 | 0.00 | 0.00 | 0.00 | 93 | 1013.2 |
| 20260507112203 | 30 | 144 | 0.0 | 0.9 | 0.00 | 0.00 | 0.00 | 93 | 1013.1 |
| 20260507111703 | 30 | 144 | 0.0 | 0.0 | 0.00 | 0.00 | 0.00 | 93 | 1013.0 |
| 20260507111203 | 30 | 144 | 0.0 | 0.0 | 0.00 | 0.00 | 0.00 | 93 | 1013.0 |
| 20260507110703 | 30 | 144 | 0.0 | 0.0 | 0.00 | 0.00 | 0.00 | 93 | 1012.9 |
| 20260507105703 | 30 | 144 | 0.0 | 0.9 | 0.00 | 0.00 | 0.00 | 93 | 1012.8 |
| 20260507105203 | 30 | 144 | 0.0 | 0.0 | 0.00 | 0.00 | 0.00 | 93 | 1012.8 |
| 20260507104704 | 30 | 144 | 0.0 | 0.0 | 0.00 | 0.00 | 0.00 | 92 | 1012.7 |
| 20260507104203 | 30 | 144 | 0.0 | 0.0 | 0.00 | 0.00 | 0.00 | 92 | 1012.7 |
| 20260507103703 | 30 | 144 | 0.0 | 0.0 | 0.00 | 0.00 | 0.00 | 92 | 1012.7 |
| 20260507103203 | 30 | 144 | 0.0 | 0.0 | 0.00 | 0.00 | 0.00 | 92 | 1012.7 |
| 20260507102704 | 30 | 144 | 0.0 | 0.0 | 0.00 | 0.00 | 0.00 | 92 | 1012.7 |
| 20260507102203 | 30 | 144 | 0.0 | 0.0 | 0.00 | 0.00 | 0.00 | 92 | 1012.6 |
| 20260507101703 | 31 | 144 | 0.0 | 0.0 | 0.00 | 0.00 | 0.00 | 92 | 1012.6 |
| 20260507100703 | 31 | 144 | 0.0 | 0.0 | 0.00 | 0.00 | 0.00 | 92 | 1012.6 |
| 20260507100203 | 31 | 144 | 0.0 | 0.0 | 0.00 | 0.00 | 0.00 | 91 | 1012.7 |
| 20260507095703 | 31 | 144 | 0.0 | 0.0 | 0.00 | 0.00 | 0.00 | 91 | 1012.6 |
| 20260507094703 | 31 | 144 | 0.0 | 0.0 | 0.00 | 0.00 | 0.00 | 91 | 1012.7 |
| 20260507094203 | 31 | 144 | 0.0 | 0.0 | 0.00 | 0.00 | 0.00 | 91 | 1012.7 |
| 20260507093703 | 32 | 144 | 0.0 | 0.0 | 0.00 | 0.00 | 0.00 | 91 | 1012.7 |
| 20260507093203 | 32 | 144 | 0.0 | 0.0 | 0.00 | 0.00 | 0.00 | 91 | 1012.7 |
| 20260507092703 | 32 | 144 | 0.0 | 0.0 | 0.00 | 0.00 | 0.00 | 91 | 1012.7 |
| 20260507092203 | 32 | 144 | 0.0 | 0.0 | 0.00 | 0.00 | 0.00 | 90 | 1012.8 |
| 20260507091703 | 32 | 144 | 0.0 | 0.0 | 0.00 | 0.00 | 0.00 | 90 | 1012.8 |
| 20260507091203 | 32 | 144 | 0.0 | 0.0 | 0.00 | 0.00 | 0.00 | 91 | 1012.8 |
| 20260507090703 | 33 | 144 | 0.0 | 0.0 | 0.00 | 0.00 | 0.00 | 90 | 1012.8 |
| 20260507090203 | 33 | 144 | 0.0 | 0.0 | 0.00 | 0.00 | 0.00 | 90 | 1012.8 |
| 20260507085704 | 33 | 144 | 0.0 | 0.9 | 0.00 | 0.00 | 0.00 | 90 | 1012.9 |
| 20260507085203 | 33 | 144 | 0.0 | 0.0 | 0.00 | 0.00 | 0.00 | 90 | 1013.0 |
| 20260507084704 | 33 | 144 | 0.0 | 0.0 | 0.00 | 0.00 | 0.00 | 89 | 1013.0 |
| 20260507084203 | 34 | 144 | 0.0 | 0.0 | 0.00 | 0.00 | 0.00 | 89 | 1012.9 |
| 20260507083704 | 34 | 144 | 0.0 | 0.0 | 0.00 | 0.00 | 0.00 | 89 | 1013.0 |
| 20260507083203 | 34 | 144 | 0.0 | 0.0 | 0.00 | 0.00 | 0.00 | 89 | 1013.0 |
| 20260507082703 | 34 | 144 | 0.0 | 0.0 | 0.00 | 0.00 | 0.00 | 89 | 1012.9 |
| 20260507082204 | 34 | 144 | 0.0 | 0.0 | 0.00 | 0.00 | 0.00 | 89 | 1012.9 |
| 20260507081703 | 35 | 144 | 0.0 | 0.0 | 0.00 | 0.00 | 0.00 | 88 | 1013.0 |
| 20260507081204 | 35 | 144 | 0.0 | 0.0 | 0.00 | 0.00 | 0.00 | 88 | 1013.0 |
| 20260507080204 | 35 | 144 | 0.0 | 0.0 | 0.00 | 0.00 | 0.00 | 87 | 1013.0 |
| 20260507075703 | 36 | 144 | 0.0 | 0.0 | 0.00 | 0.00 | 0.00 | 87 | 1013.0 |
| 20260507074703 | 36 | 144 | 0.0 | 0.0 | 0.00 | 0.00 | 0.00 | 86 | 1013.0 |
| 20260507074204 | 37 | 144 | 0.0 | 0.0 | 0.00 | 0.00 | 0.00 | 85 | 1013.1 |
| 20260507073703 | 37 | 144 | 0.0 | 0.0 | 0.00 | 0.00 | 0.00 | 85 | 1013.1 |
| 20260507073203 | 37 | 144 | 0.0 | 0.0 | 0.00 | 0.00 | 0.00 | 85 | 1013.0 |
| 20260507072703 | 37 | 144 | 0.0 | 0.0 | 0.00 | 0.00 | 0.00 | 84 | 1013.1 |
| 20260507072204 | 38 | 144 | 0.0 | 0.0 | 0.00 | 0.00 | 0.00 | 84 | 1013.1 |
| 20260507071703 | 38 | 144 | 0.0 | 0.0 | 0.00 | 0.00 | 0.00 | 83 | 1013.2 |
| 20260507071204 | 39 | 144 | 0.0 | 0.0 | 0.00 | 0.00 | 0.00 | 83 | 1013.2 |
| 20260507070703 | 39 | 144 | 0.0 | 0.0 | 0.00 | 0.00 | 0.00 | 83 | 1013.2 |
| 20260507065704 | 39 | 144 | 0.0 | 0.0 | 0.00 | 0.00 | 0.00 | 82 | 1013.3 |
| 20260507065203 | 40 | 144 | 0.0 | 0.0 | 0.00 | 0.00 | 0.00 | 82 | 1013.4 |
| 20260507064704 | 40 | 144 | 0.0 | 0.0 | 0.00 | 0.00 | 0.00 | 82 | 1013.3 |
| 20260507064203 | 40 | 144 | 0.0 | 0.0 | 0.00 | 0.00 | 0.00 | 82 | 1013.4 |
| 20260507063704 | 40 | 144 | 0.0 | 0.0 | 0.00 | 0.00 | 0.00 | 82 | 1013.4 |
| 20260507063202 | 40 | 144 | 0.0 | 0.0 | 0.00 | 0.00 | 0.00 | 82 | 1013.4 |
| 20260507062702 | 40 | 144 | 0.0 | 0.0 | 0.00 | 0.00 | 0.00 | 82 | 1013.3 |
| 20260507062203 | 40 | 144 | 0.0 | 0.0 | 0.00 | 0.00 | 0.00 | 82 | 1013.3 |
| 20260507061702 | 40 | 144 | 0.0 | 0.0 | 0.00 | 0.00 | 0.00 | 82 | 1013.3 |
| 20260507061203 | 41 | 144 | 0.0 | 0.0 | 0.00 | 0.00 | 0.00 | 82 | 1013.4 |
| 20260507060703 | 41 | 144 | 0.0 | 0.0 | 0.00 | 0.00 | 0.00 | 82 | 1013.4 |
| 20260507055702 | 41 | 144 | 0.0 | 0.0 | 0.00 | 0.00 | 0.00 | 81 | 1013.4 |
| 20260507055203 | 41 | 144 | 0.9 | 0.9 | 0.00 | 0.00 | 0.00 | 80 | 1013.4 |
| 20260507054702 | 41 | 144 | 0.0 | 0.0 | 0.00 | 0.00 | 0.00 | 80 | 1013.4 |
| 20260507054203 | 41 | 144 | 0.0 | 0.0 | 0.00 | 0.00 | 0.00 | 80 | 1013.4 |
| 20260507053702 | 41 | 144 | 0.0 | 0.9 | 0.00 | 0.00 | 0.00 | 80 | 1013.4 |
| 20260507053203 | 41 | 144 | 0.0 | 0.9 | 0.00 | 0.00 | 0.00 | 79 | 1013.4 |
| 20260507052702 | 41 | 144 | 0.0 | 0.0 | 0.00 | 0.00 | 0.00 | 79 | 1013.5 |
| 20260507051702 | 42 | 228 | 0.0 | 1.7 | 0.00 | 0.00 | 0.00 | 78 | 1013.6 |
| 20260507051203 | 42 | 228 | 0.0 | 2.6 | 0.00 | 0.00 | 0.00 | 78 | 1013.6 |
| 20260507050203 | 42 | 246 | 0.9 | 2.6 | 0.00 | 0.00 | 0.00 | 76 | 1013.6 |
| 20260507045703 | 42 | 238 | 1.7 | 2.6 | 0.00 | 0.00 | 0.00 | 75 | 1013.6 |
| 20260507045202 | 43 | 227 | 1.7 | 6.1 | 0.00 | 0.00 | 0.00 | 74 | 1013.6 |
| 20260507044702 | 43 | 202 | 1.7 | 2.6 | 0.00 | 0.00 | 0.00 | 72 | 1013.5 |
| 20260507044203 | 43 | 164 | 1.7 | 2.6 | 0.00 | 0.00 | 0.00 | 72 | 1013.5 |
| 20260507042702 | 43 | 277 | 0.9 | 2.6 | 0.00 | 0.00 | 0.00 | 69 | 1013.5 |
| 20260507041703 | 43 | 243 | 1.7 | 6.1 | 0.00 | 0.00 | 0.00 | 72 | 1013.3 |
| 20260507040703 | 43 | 259 | 0.0 | 2.6 | 0.00 | 0.00 | 0.00 | 74 | 1013.4 |
| 20260507040203 | 43 | 167 | 0.0 | 0.0 | 0.00 | 0.00 | 0.00 | 76 | 1013.4 |
| 20260507035702 | 43 | 167 | 0.0 | 0.0 | 0.00 | 0.00 | 0.00 | 77 | 1013.4 |
| 20260507035203 | 43 | 167 | 0.0 | 0.0 | 0.00 | 0.00 | 0.00 | 77 | 1013.4 |
| 20260507034703 | 43 | 186 | 0.0 | 0.0 | 0.00 | 0.00 | 0.00 | 78 | 1013.4 |
| 20260507034203 | 43 | 186 | 0.0 | 0.0 | 0.00 | 0.00 | 0.00 | 77 | 1013.4 |
| 20260507033703 | 42 | 186 | 0.0 | 0.0 | 0.00 | 0.00 | 0.00 | 77 | 1013.5 |
| 20260507033203 | 42 | 186 | 0.0 | 0.0 | 0.00 | 0.00 | 0.00 | 76 | 1013.5 |
| 20260507032703 | 42 | 186 | 0.0 | 0.0 | 0.00 | 0.00 | 0.00 | 76 | 1013.4 |
| 20260507032202 | 42 | 186 | 0.0 | 0.0 | 0.00 | 0.00 | 0.00 | 76 | 1013.4 |
| 20260507031703 | 42 | 186 | 0.0 | 0.0 | 0.00 | 0.00 | 0.00 | 75 | 1013.4 |
| 20260507031202 | 42 | 186 | 0.0 | 0.0 | 0.00 | 0.00 | 0.00 | 74 | 1013.4 |
| 20260507030703 | 42 | 186 | 0.0 | 0.0 | 0.00 | 0.00 | 0.00 | 74 | 1013.3 |
| 20260507030203 | 42 | 186 | 0.0 | 0.0 | 0.00 | 0.00 | 0.00 | 73 | 1013.3 |
| 20260507025703 | 43 | 186 | 0.0 | 0.0 | 0.00 | 0.00 | 0.00 | 72 | 1013.4 |
| 20260507025202 | 43 | 186 | 0.0 | 0.0 | 0.00 | 0.00 | 0.00 | 72 | 1013.4 |
| 20260507024703 | 43 | 186 | 0.0 | 0.0 | 0.00 | 0.00 | 0.00 | 71 | 1013.3 |
| 20260507024202 | 43 | 186 | 0.0 | 0.0 | 0.00 | 0.00 | 0.00 | 71 | 1013.3 |
| 20260507023703 | 43 | 186 | 0.0 | 0.0 | 0.00 | 0.00 | 0.00 | 70 | 1013.3 |
| 20260507023203 | 43 | 186 | 0.0 | 0.0 | 0.00 | 0.00 | 0.00 | 70 | 1013.3 |
| 20260507022703 | 43 | 186 | 0.0 | 0.0 | 0.00 | 0.00 | 0.00 | 69 | 1013.3 |
| 20260507022203 | 43 | 186 | 0.0 | 0.0 | 0.00 | 0.00 | 0.00 | 68 | 1013.2 |
| 20260507021703 | 43 | 186 | 0.0 | 0.0 | 0.00 | 0.00 | 0.00 | 68 | 1013.1 |
| 20260507021203 | 44 | 186 | 0.0 | 0.0 | 0.00 | 0.00 | 0.00 | 68 | 1013.1 |
| 20260507020703 | 44 | 178 | 0.0 | 0.0 | 0.00 | 0.00 | 0.00 | 67 | 1013.1 |
| 20260507020203 | 44 | 178 | 0.0 | 0.0 | 0.00 | 0.00 | 0.00 | 67 | 1013.1 |
| 20260507015703 | 44 | 178 | 0.0 | 0.0 | 0.00 | 0.00 | 0.00 | 66 | 1013.2 |
| 20260507015203 | 44 | 178 | 0.0 | 0.0 | 0.00 | 0.00 | 0.00 | 66 | 1013.2 |
| 20260507014203 | 44 | 165 | 0.0 | 0.0 | 0.00 | 0.00 | 0.00 | 65 | 1013.1 |
| 20260507013703 | 44 | 165 | 0.0 | 0.9 | 0.00 | 0.00 | 0.00 | 64 | 1013.1 |
| 20260507013204 | 44 | 165 | 0.9 | 1.7 | 0.00 | 0.00 | 0.00 | 64 | 1013.1 |
| 20260507012703 | 44 | 171 | 0.0 | 0.0 | 0.00 | 0.00 | 0.00 | 64 | 1013.1 |
| 20260507012203 | 44 | 174 | 0.9 | 1.7 | 0.00 | 0.00 | 0.00 | 63 | 1013.1 |
| 20260507011703 | 44 | 178 | 0.9 | 2.6 | 0.00 | 0.00 | 0.00 | 62 | 1013.1 |
| 20260507010703 | 44 | 227 | 0.9 | 2.6 | 0.00 | 0.00 | 0.00 | 61 | 1013.1 |
| 20260507010203 | 44 | 178 | 0.9 | 1.7 | 0.00 | 0.00 | 0.00 | 61 | 1013.1 |
| 20260507005703 | 44 | 165 | 0.0 | 0.9 | 0.00 | 0.00 | 0.00 | 60 | 1013.0 |
| 20260507005203 | 45 | 165 | 0.9 | 2.6 | 0.00 | 0.00 | 0.00 | 59 | 1013.0 |
| 20260507004703 | 45 | 169 | 0.9 | 1.7 | 0.00 | 0.00 | 0.00 | 59 | 1012.9 |